This demonstration page uses our WeatherBlox Daily Observations layout. Learn more.

36.17497, -115.13722

Hourly Observations for September 9, 2018

Temp ( °F °C ) Dew Point ( °F °C ) Humidity (%) Winds ( mph kmh ) Pressure ( in mb ) Visibility ( mi km ) Precip ( " mm )
12:53 am 00:53 Clear 86 30 33 0.6 15 15 Calm 29.71 1006 10 16.09344 0 0
1:53 am 01:53 Clear 86 30 35 1.7 16 16 Calm 29.71 1006 10 16.09344 0 0
2:53 am 02:53 Clear 80 26.7 35 1.7 20 20 NW 5 7 29.74 1007 10 16.09344 0 0
3:53 am 03:53 Clear 78 25.6 33 0.6 19 19 NNW 6 9 29.74 1007 10 16.09344 0 0
4:53 am 04:53 Clear 78 25.6 31 -0.6 18 18 NNW 10 17 29.74 1007 10 16.09344 0 0
5:53 am 05:53 Clear 77 25 32 0 19 19 NNW 5 7 29.77 1008 10 16.09344 0 0
6:53 am 06:53 Sunny 77 25 34 1.1 21 21 NW 6 9 29.8 1009 10 16.09344 0 0
7:53 am 07:53 Sunny 84 28.9 34 1.1 17 17 NW 3 6 29.8 1009 10 16.09344 0 0
8:53 am 08:53 Sunny 89 31.7 35 1.7 15 15 Calm 29.83 1010 10 16.09344 0 0
9:53 am 09:53 Sunny 91 32.8 33 0.6 13 13 Calm 29.83 1010 10 16.09344 0 0
10:53 am 10:53 Sunny 95 35 33 0.6 11 11 Calm 29.8 1009 10 16.09344 0 0
11:53 am 11:53 Sunny 97 36.1 32 0 10 10 SSW 6 9 29.8 1009 10 16.09344 0 0
12:53 pm 12:53 Sunny 100 37.8 26 -3.3 7 7 SSE 9 15 29.77 1008 10 16.09344 0 0
1:53 pm 13:53 Sunny 103 39.4 23 -5 6 6 S 8 13 29.74 1007 10 16.09344 0 0
2:53 pm 14:53 Sunny 103 39.4 23 -5 6 6 S 12 19 29.71 1006 10 16.09344 0 0
3:53 pm 15:53 Sunny 104 40 23 -5 6 6 SSE 10 17 29.71 1006 10 16.09344 0 0
4:53 pm 16:53 Sunny 104 40 27 -2.8 7 7 SSW 7 11 29.68 1005 10 16.09344 0 0
5:02 pm 17:02 Sunny 102 38.9 26 -3.3 7 7 SW 7 11 29.5 999 10 16.09344 0 0
5:06 pm 17:06 Sunny 102 38.9 26 -3.3 7 7 S 6 9 29.5 999 10 16.09344 0 0
5:09 pm 17:09 Sunny 102 38.9 26 -3.3 7 7 N 6 9 29.5 999 10 16.09344 0 0
5:10 pm 17:10 Sunny 103 39.4 27 -2.8 7 7 N 7 11 29.5 999 10 16.09344 0 0
5:53 pm 17:53 Sunny 102 38.9 28 -2.2 7 7 SW 13 20 29.68 1005 10 16.09344 0 0
6:08 pm 18:08 Sunny 101 38.3 28 -2.2 8 8 SW 13 20 29.5 999 10 16.09344 0 0
6:11 pm 18:11 Sunny 101 38.3 28 -2.2 8 8 SW 12 19 29.5 999 10 16.09344 0 0
6:12 pm 18:12 Sunny 101 38.3 28 -2.2 8 8 SW 10 17 29.5 999 10 16.09344 0 0
6:53 pm 18:53 Sunny 100 37.8 29 -1.7 8 8 SSW 9 15 29.68 1005 10 16.09344 0 0
7:53 pm 19:53 Clear 97 36.1 29 -1.7 9 9 SW 6 9 29.71 1006 10 16.09344 0 0
8:53 pm 20:53 Clear 94 34.4 30 -1.1 10 10 SSW 5 7 29.71 1006 10 16.09344 0 0
9:53 pm 21:53 Clear 92 33.3 30 -1.1 11 11 SW 7 11 29.74 1007 10 16.09344 0 0
10:53 pm 22:53 Clear 89 31.7 30 -1.1 12 12 Calm 29.74 1007 10 16.09344 0 0
11:53 pm 23:53 Clear 86 30 31 -0.6 14 14 WNW 5 7 29.74 1007 10 16.09344 0 0

Powered by AerisWeather